[[{"header":{"parameterUnit":"m.s-1","parameterCategory":1,"la1":30.2991,"la2":30.254,"lo1":-89.0895,"lo2":-89.0444,"dy":0.0017,"dx":0.0017,"nx":28,"ny":28,"refTime":"2025-12-13T03:00:00:Z","depth":0,"parameterNumber":2,"parameterNumberName":"U-component_of_WINDS"},"data":[0,0,0,0,0,0,0,0,0,0,0,0,0,0,0,0,0,0,0,0,0,0,0,0,0,0,0,0,0,0,0,0,0,0,0,0,0,0,0,0,0,0,0,0,0,0,0,0,0,0,0,0,0,0,0,0,0,0,-2.2328,-2.2328,0,-2.2376,-2.2377,-2.2377,-2.2317,-2.2315,-2.2313,-2.231,-2.2362,-2.2365,-2.2369,0,0,0,0,0,0,0,0,0,0,0,0,0,-2.2183,-2.2186,-2.2328,-2.2328,-2.2329,-2.2376,-2.2377,-2.2378,-2.2317,-2.2315,-2.2312,-2.2309,-2.2361,-2.2365,-2.2369,0,0,0,0,0,0,0,0,0,0,0,0,0,-2.224,-2.2187,-2.2328,-2.2305,-2.2303,-2.2376,-2.2377,-2.2378,-2.2318,-2.2315,-2.2311,-2.2308,-2.2359,-2.2364,-2.2369,-2.2468,0,0,-2.2385,-2.2387,0,0,0,0,0,0,0,0,-2.2237,-2.2246,-2.2307,-2.2306,-2.2305,-2.2337,-2.2345,-2.2408,-2.2319,-2.2312,-2.231,-2.2307,-2.2356,-2.2362,-2.2378,-2.247,-2.2473,-2.2386,-2.2389,-2.2391,-2.2393,0,0,0,0,0,0,0,-2.2233,-2.2243,-2.2347,-2.2308,-2.2307,-2.2292,-2.2296,-2.2356,-2.2353,-2.2313,-2.2308,-2.2315,-2.2355,-2.2373,-2.2379,-2.2473,-2.2386,-2.239,-2.2393,-2.2395,-2.2648,-2.2651,0,0,0,0,0,0,-2.2232,-2.224,-2.2345,-2.2348,-2.2262,-2.2297,-2.2302,-2.233,-2.2352,-2.2352,-2.2318,-2.2312,-2.2366,-2.2373,-2.238,-2.2497,-2.2391,-2.2396,-2.2399,-2.2644,-2.2649,-2.2653,0,0,0,0,0,0,-2.2229,-2.2242,-2.2343,-2.2293,-2.2305,-2.2303,-2.2335,-2.2333,-2.2351,-2.2355,-2.2355,-2.2337,-2.2364,-2.2373,-2.2446,-2.2498,-2.2398,-2.2403,-2.264,-2.2646,-2.2651,-2.2732,0,0,0,0,0,0,-2.2225,-2.2241,-2.2279,-2.2294,-2.2308,-2.2409,-2.2338,-2.2336,-2.236,-2.2353,-2.2373,-2.2374,-2.2362,-2.2439,-2.2452,-2.2503,-2.2407,-2.2635,-2.2643,-2.2649,-2.2724,-2.2739,-2.2752,0,0,0,0,0,-2.222,-2.23,-2.2281,-2.2294,-2.2355,-2.2412,-2.242,-2.2404,-2.2364,-2.2402,-2.2405,-2.2373,-2.249,-2.2447,-2.2461,-2.2515,-2.2632,-2.2641,-2.2648,-2.2718,-2.2736,-2.2752,0,0,0,0,0,0,-2.2292,-2.2302,-2.2281,-2.2368,-2.239,-2.2402,-2.2449,-2.2424,-2.2458,-2.245,-2.2429,-2.2434,-2.2512,-2.252,-2.2472,-2.2611,-2.2555,-2.2566,-2.2603,-2.262,-2.2634,-2.2631,-2.2411,0,0,0,0,0,-2.2317,-2.2363,-2.2369,-2.2446,-2.2457,-2.2451,-2.2476,-2.2462,-2.2483,-2.2492,-2.25,-2.2523,-2.2564,-2.2592,-2.2631,-2.2724,-2.2728,-2.2768,-2.2782,-2.2793,-2.2804,-2.2853,-2.2871,-2.2679,-2.2679,-2.2679,0,0,-2.2371,-2.2382,-2.2413,-2.246,-2.2475,-2.2523,-2.246,-2.2513,-2.2548,-2.25,-2.257,-2.2576,-2.26,-2.2684,-2.2721,-2.2693,-2.2857,-2.2804,-2.2813,-2.2817,-2.2864,-2.2882,-2.2898,-2.2685,-2.2684,-2.2683,0,0,-2.2495,-2.2507,-2.2572,-2.2588,-2.2611,-2.2606,-2.2622,-2.2637,-2.264,-2.2709,-2.2674,-2.2715,-2.2787,-2.2805,-2.2824,-2.2952,-2.2924,-2.2965,-2.3037,-2.3086,-2.3101,-2.3114,-2.316,-2.3177,-2.2975,-2.2975,-2.2975,0,-2.2559,-2.2629,-2.2609,-2.2665,-2.2687,-2.2644,-2.271,-2.2726,-2.2761,-2.2777,-2.2745,-2.2834,-2.2847,-2.2934,-2.2965,-2.2981,-2.2998,-2.2963,-2.31,-2.3114,-2.3126,-2.3169,-2.3187,-2.298,-2.2979,-2.2979,-2.2978,0,-2.2708,-2.2757,-2.2807,-2.284,-2.2867,-2.2928,-2.2917,-2.2947,-2.2929,-2.2928,-2.2998,-2.3012,-2.3052,-2.3071,-2.3056,-2.3156,-2.3138,-2.3104,-2.3047,-2.3149,-2.319,-2.3207,-2.2987,-2.2985,-2.2984,-2.2982,0,0,-2.288,-2.29,-2.2919,-2.2933,-2.2954,-2.2992,-2.305,-2.3088,-2.3115,-2.3139,-2.3188,-2.3248,-2.3216,-2.3237,-2.3223,-2.3265,-2.3366,-2.3225,-2.3225,-2.3252,-2.3477,-2.3504,-2.3524,-2.3346,-2.3349,-2.3352,-2.3476,0,-2.3004,-2.3104,-2.3087,-2.3184,-2.3229,-2.3188,-2.3238,-2.3257,-2.3256,-2.3294,-2.3293,-2.3337,-2.3291,-2.3303,-2.3343,-2.3345,-2.3411,-2.3335,-2.3392,-2.3394,-2.3389,-2.3545,-2.3574,-2.3691,-2.3491,-2.3494,-2.3496,0,-2.3163,-2.3192,-2.3294,-2.3307,-2.3325,-2.3371,-2.3404,-2.3441,-2.346,-2.3457,-2.3479,-2.3456,-2.3514,-2.3454,-2.3533,-2.3482,-2.3504,-2.3508,-2.3512,-2.3518,-2.3453,-2.3557,-2.3728,-2.3746,-2.3521,-2.3519,-2.3517,0,-2.3279,-2.3344,-2.3413,-2.3427,-2.3443,-2.3476,-2.3485,-2.3501,-2.3525,-2.3554,-2.3569,-2.3604,-2.3624,-2.3652,-2.3639,-2.3597,-2.372,-2.366,-2.3719,-2.372,-2.3749,-2.3748,-2.3927,-2.376,-2.376,-2.376,-2.3759,0,-2.342,-2.3484,-2.3466,-2.3509,-2.3579,-2.3557,-2.3627,-2.3631,-2.3645,-2.3688,-2.3654,-2.3695,-2.3674,-2.3713,-2.3703,-2.377,-2.3779,-2.3778,-2.3775,-2.3782,-2.3782,-2.3797,-2.3789,-2.3764,-2.3763,-2.3763,-2.3762,0,-2.3563,-2.3553,-2.3626,-2.3635,-2.3639,-2.369,-2.3698,-2.3738,-2.3733,-2.3788,-2.3799,-2.3793,-2.3837,-2.3826,-2.3874,-2.3867,-2.3952,-2.3938,-2.3945,-2.3943,-2.4003,-2.3998,-2.4199,-2.4225,-2.4041,-2.4042,-2.4044,0,-2.3655,-2.3703,-2.3717,-2.3743,-2.3753,-2.3796,-2.3819,-2.3799,-2.3825,-2.385,-2.3887,-2.3928,-2.396,-2.4032,-2.4032,-2.4068,-2.4055,-2.4123,-2.4061,-2.4066,-2.4057,-2.4055,-2.406,-2.4136,-2.4139,-2.414,-2.4142,0,-2.3819,-2.3811,-2.3847,-2.388,-2.3909,-2.3935,-2.3957,-2.398,-2.3962,-2.3993,-2.4037,-2.4062,-2.411,-2.4151,-2.4184,-2.4192,-2.4165,-2.4161,-2.4177,-2.4185,-2.4188,-2.4188,-2.3981,-2.4157,-2.4155,-2.4154,-2.4153,-2.4153,-2.394,-2.398,-2.3996,-2.4037,-2.4051,-2.4072,-2.411,-2.411,-2.4146,-2.4184,-2.4169,-2.422,-2.4236,-2.4278,-2.429,-2.4329,-2.4304,-2.4326,-2.4332,-2.4339,-2.4347,-2.418,-2.4335,-2.4335,-2.4334,-2.4334,-2.4333,0,-2.4103,-2.411,-2.4147,-2.4179,-2.4211,-2.418,-2.4203,-2.4232,-2.4276,-2.4294,-2.4325,-2.4376,-2.4415,-2.4417,-2.4453,-2.4484,-2.4472,-2.4494,-2.4493,-2.4495,-2.4367,-2.435,-2.4503,-2.4503,-2.4503,-2.4503,-2.4503,-2.4503,-2.4191,-2.4259,-2.4252,-2.4326,-2.4333,-2.4382,-2.4397,-2.4417,-2.4431,-2.4488,-2.452,-2.4521,-2.4532,-2.4568,-2.4603,-2.4602,-2.4618,-2.4645,-2.464,-2.4521,-2.4504,-2.4488,-2.4472,-2.4648,-2.4649,-2.4765,-2.4766,-2.4766]},{"header":{"parameterUnit":"m.s-1","parameterCategory":1,"la1":30.2991,"la2":30.254,"lo1":-89.0895,"lo2":-89.0444,"dy":0.0017,"dx":0.0017,"nx":28,"ny":28,"refTime":"2025-12-13T03:00:00:Z","depth":0,"parameterNumber":3,"parameterNumberName":"V-component_of_WINDS"},"data":[0,0,0,0,0,0,0,0,0,0,0,0,0,0,0,0,0,0,0,0,0,0,0,0,0,0,0,0,0,0,0,0,0,0,0,0,0,0,0,0,0,0,0,0,0,0,0,0,0,0,0,0,0,0,0,0,0,0,-8.9635,-8.9636,0,-8.9769,-8.977,-8.9772,-8.9667,-8.9662,-8.9658,-8.9653,-8.9785,-8.9793,-8.98,0,0,0,0,0,0,0,0,0,0,0,0,0,-8.9281,-8.9288,-8.9634,-8.9636,-8.9638,-8.9769,-8.977,-8.9772,-8.9667,-8.9662,-8.9657,-8.9651,-8.9783,-8.9792,-8.9801,0,0,0,0,0,0,0,0,0,0,0,0,0,-8.9427,-8.929,-8.9634,-8.9601,-8.96,-8.9768,-8.9771,-8.9773,-8.9669,-8.9662,-8.9655,-8.9649,-8.978,-8.9791,-8.9802,-9.0009,0,0,-8.9838,-8.9843,0,0,0,0,0,0,0,0,-8.9419,-8.944,-8.9605,-8.9604,-8.9603,-8.9694,-8.9694,-8.9852,-8.967,-8.9642,-8.9653,-8.9646,-8.976,-8.9773,-8.9813,-9.0015,-9.002,-8.9839,-8.9846,-8.9851,-8.9854,0,0,0,0,0,0,0,-8.9409,-8.9433,-8.9687,-8.9607,-8.9606,-8.9578,-8.9591,-8.9723,-8.9737,-8.9644,-8.9637,-8.9655,-8.9758,-8.9802,-8.9815,-9.0022,-8.9838,-8.9849,-8.9856,-8.986,-9.0399,-9.0406,0,0,0,0,0,0,-8.9403,-8.9426,-8.9683,-8.9691,-8.9492,-8.959,-8.9605,-8.9672,-8.9736,-8.9739,-8.966,-8.9649,-8.9785,-8.9802,-8.9819,-9.0064,-8.9851,-8.9861,-8.9868,-9.0392,-9.04,-9.0408,0,0,0,0,0,0,-8.9395,-8.9427,-8.9678,-8.9557,-8.9587,-8.9603,-8.9679,-8.9678,-8.9721,-8.9748,-8.9749,-8.9703,-8.9781,-8.9803,-8.9962,-9.0068,-8.9867,-8.9877,-9.0383,-9.0394,-9.0404,-9.0557,0,0,0,0,0,0,-8.9386,-8.9425,-8.9505,-8.9559,-8.9594,-8.9821,-8.9686,-8.9685,-8.9742,-8.9729,-8.9788,-8.9791,-8.9777,-8.9946,-8.9974,-9.008,-8.9886,-9.0373,-9.0388,-9.0401,-9.0543,-9.0572,-9.0597,0,0,0,0,0,-8.9373,-8.9541,-8.9509,-8.9541,-8.9694,-8.9828,-8.9847,-8.9829,-8.9751,-8.9831,-8.9847,-8.9789,-9.0052,-8.9963,-8.9994,-9.0105,-9.0367,-9.0384,-9.04,-9.0531,-9.0566,-9.0596,0,0,0,0,0,0,-8.9496,-8.9548,-8.9513,-8.9704,-8.9763,-8.981,-8.991,-8.9867,-8.9948,-8.9932,-8.9904,-8.9918,-9.0086,-9.0111,-9.0012,-9.0307,-9.0196,-9.022,-9.0285,-9.0319,-9.0346,-9.0336,-8.9896,0,0,0,0,0,-8.9546,-8.9652,-8.969,-8.9855,-8.9886,-8.9893,-8.995,-8.9932,-8.999,-9.0014,-9.0042,-9.01,-9.0195,-9.0258,-9.0347,-9.0545,-9.0556,-9.0637,-9.0664,-9.0686,-9.0707,-9.0813,-9.0849,-9.0463,-9.0463,-9.0463,0,0,-8.9649,-8.969,-8.9758,-8.9881,-8.9924,-9.0032,-8.9915,-9.0034,-9.0114,-9.0031,-9.0185,-9.0207,-9.0269,-9.0449,-9.053,-9.0475,-9.0816,-9.0707,-9.0725,-9.0734,-9.0833,-9.087,-9.0902,-9.0474,-9.0472,-9.047,0,0,-8.9893,-8.9935,-9.0077,-9.0123,-9.019,-9.0194,-9.0228,-9.0282,-9.0294,-9.0448,-9.0388,-9.0481,-9.0646,-9.0692,-9.0738,-9.0999,-9.0948,-9.1028,-9.117,-9.1274,-9.1304,-9.1331,-9.1424,-9.1457,-9.1048,-9.1049,-9.1049,0,-9.0012,-9.0175,-9.0154,-9.0279,-9.0334,-9.0266,-9.0408,-9.0453,-9.0546,-9.0584,-9.0522,-9.0727,-9.0764,-9.0954,-9.1017,-9.1056,-9.1093,-9.1022,-9.1302,-9.1328,-9.1353,-9.1441,-9.1476,-9.1058,-9.1057,-9.1056,-9.1055,0,-9.0318,-9.0432,-9.0538,-9.0631,-9.0698,-9.0831,-9.0828,-9.0898,-9.0873,-9.0882,-9.1039,-9.1081,-9.1177,-9.122,-9.1196,-9.1407,-9.137,-9.1306,-9.1194,-9.14,-9.1482,-9.1515,-9.1072,-9.1068,-9.1066,-9.1063,0,0,-9.0643,-9.0724,-9.0763,-9.0804,-9.0874,-9.096,-9.1089,-9.1185,-9.1245,-9.131,-9.1417,-9.1558,-9.1498,-9.155,-9.153,-9.1621,-9.1825,-9.1545,-9.1546,-9.1595,-9.2058,-9.2107,-9.2146,-9.1791,-9.1798,-9.1803,-9.2053,0,-9.089,-9.1117,-9.1102,-9.1315,-9.1419,-9.1356,-9.1468,-9.1521,-9.1533,-9.1622,-9.1633,-9.1734,-9.1648,-9.1679,-9.1766,-9.1782,-9.1917,-9.1763,-9.1889,-9.1893,-9.1876,-9.2189,-9.2241,-9.2475,-9.2085,-9.209,-9.2094,0,-9.1209,-9.1288,-9.1512,-9.1565,-9.1608,-9.171,-9.1796,-9.1882,-9.1941,-9.1943,-9.2001,-9.1966,-9.2094,-9.1979,-9.2154,-9.205,-9.2099,-9.2115,-9.2123,-9.2135,-9.2007,-9.2209,-9.2549,-9.2585,-9.2144,-9.214,-9.2137,0,-9.1424,-9.1586,-9.1741,-9.1778,-9.1844,-9.1917,-9.1947,-9.1999,-9.2058,-9.2132,-9.217,-9.2258,-9.2306,-9.2374,-9.2363,-9.228,-9.2541,-9.2425,-9.2545,-9.2545,-9.2603,-9.26,-9.2957,-9.2635,-9.2635,-9.2634,-9.2633,0,-9.1701,-9.1841,-9.1838,-9.1934,-9.2087,-9.2067,-9.222,-9.2241,-9.2288,-9.2385,-9.2334,-9.2426,-9.2406,-9.2496,-9.2488,-9.2634,-9.2656,-9.266,-9.2656,-9.2665,-9.2665,-9.2697,-9.2681,-9.2643,-9.2641,-9.2639,-9.2638,0,-9.1968,-9.1972,-9.2137,-9.2186,-9.2202,-9.2313,-9.2354,-9.2443,-9.245,-9.2574,-9.2601,-9.2613,-9.2717,-9.2713,-9.283,-9.2824,-9.3004,-9.2981,-9.2985,-9.298,-9.31,-9.3089,-9.3491,-9.3543,-9.3188,-9.3191,-9.3194,0,-9.2145,-9.2251,-9.2312,-9.2375,-9.2411,-9.2512,-9.2571,-9.2555,-9.2619,-9.2694,-9.2774,-9.2873,-9.2952,-9.312,-9.3138,-9.3227,-9.3205,-9.334,-9.3218,-9.3224,-9.3207,-9.3201,-9.3212,-9.3364,-9.3368,-9.3371,-9.3374,0,-9.2459,-9.2456,-9.2545,-9.2636,-9.271,-9.278,-9.2844,-9.2897,-9.2887,-9.2961,-9.3068,-9.3129,-9.325,-9.3349,-9.3434,-9.3462,-9.3417,-9.3412,-9.3445,-9.3455,-9.3453,-9.3456,-9.305,-9.3403,-9.34,-9.3398,-9.3397,-9.3395,-9.2686,-9.2777,-9.2835,-9.2936,-9.2983,-9.3044,-9.3131,-9.315,-9.3239,-9.3337,-9.3321,-9.3441,-9.3494,-9.3605,-9.3641,-9.3733,-9.3684,-9.3731,-9.3743,-9.3755,-9.3769,-9.3439,-9.3748,-9.3747,-9.3746,-9.3746,-9.3745,0,-9.2997,-9.3031,-9.3125,-9.3217,-9.3297,-9.3248,-9.3317,-9.3385,-9.3492,-9.3547,-9.3626,-9.3748,-9.3844,-9.3869,-9.3961,-9.4029,-9.401,-9.4053,-9.4048,-9.4055,-9.3807,-9.377,-9.4067,-9.4067,-9.4067,-9.4067,-9.4067,-9.4067,-9.3169,-9.3321,-9.3325,-9.3498,-9.353,-9.3649,-9.3692,-9.3747,-9.3791,-9.3931,-9.4011,-9.4027,-9.407,-9.4164,-9.4249,-9.4253,-9.4289,-9.4341,-9.4338,-9.4105,-9.4073,-9.4042,-9.4007,-9.4349,-9.435,-9.4578,-9.458,-9.4582]}]]